Back to catalog

STARLINK-32835

AliveCommunicationsVLEO
NORAD 63051·PAYLOAD·🇺🇸 United States

Launched Feb 18, 2025 from Cape Canaveral Space Force Station

Loading…

Next Passes (next 24 hours)

TLE

FreshSource: CelesTrak SupGP

Epoch: Sep 14, 2026, 22:50 UTC

1 63051C 25034Y   26257.95187500  .00020873  00000+0  61731-3 0  2573
2 63051  53.1580 107.8165 0001260  86.7326 143.2049 15.34349343    11

Track STARLINK-32835 in real time with AllMySat

Download on the App Store